"Pseudo-MPEC" for C45ZE41

Created 2026 Mar 14 5:35:12 UT using Find_Orb

Click here for an explanation of pseudo-MPECs

 
 Astrometry: 
     C45ZE41 0C2026 03 07.28304008 03 35.293-07 03 59.09   ~3BH5       VNEOCPF51
     C45ZE41*1C2026 03 08.29259009 33 14.780-22 00 52.90   ~387Z 18.49GVNEOCP703
     C45ZE41 1C2026 03 08.29494509 33 24.610-22 02 19.10   ~387Z 18.43GVNEOCP703
     C45ZE41 1C2026 03 08.29729909 33 34.410-22 03 46.10   ~387Z 18.52GVNEOCP703
     C45ZE41 1C2026 03 08.29965109 33 44.330-22 05 12.60   ~387Z 18.67GVNEOCP703
     C45ZE41 1C2026 03 08.32372109 35 25.336-22 19 49.48   ~3885 17.71GVNEOCPI52
     C45ZE41 1C2026 03 08.32423209 35 27.481-22 20 07.76   ~3885 18.31GVNEOCPI52
     C45ZE41 1C2026 03 08.32474409 35 29.616-22 20 26.27   ~3885 17.98GVNEOCPI52
     C45ZE41 1C2026 03 08.32525609 35 31.758-22 20 44.52   ~3885       VNEOCPI52
     C45ZE41 1C2026 03 08.34529709 36 55.357-22 32 36.46   ~388Z 17.87GVNEOCPI52
     C45ZE41 1C2026 03 08.34580709 36 57.481-22 32 54.46   ~388Z 18.51GVNEOCPI52
     C45ZE41 1C2026 03 08.34631709 36 59.587-22 33 12.46   ~388Z 18.01GVNEOCPI52
     C45ZE41 1C2026 03 08.34683009 37 01.729-22 33 30.10   ~388Z 17.75GVNEOCPI52
     C45ZE41 0B2026 03 08.91165410 14 23.818-27 09 16.99   ~397Z 18.3 GWNEOCP204
     C45ZE41 |C2026 03 09.00340010 20 03.730-27 29 58.10   ~390o 18.6 GVNEOCP807
     C45ZE41 |C2026 03 09.00550010 20 10.350-27 30 46.30   ~390o 18.5 GVNEOCP807
     C45ZE41 |C2026 03 09.00760010 20 16.960-27 31 34.80   ~390o 19.1 GVNEOCP807
     C45ZE41 |C2026 03 11.06742911 34 33.050-33 49 38.60   ~3B2K 19.7 GVNEOCP807
     C45ZE41 |C2026 03 11.07230011 34 39.190-33 50 07.50   ~3B2K 19.5 GVNEOCP807
     C45ZE41 |C2026 03 11.07433011 34 41.750-33 50 19.50   ~3B2K 19.7 GVNEOCP807
     C45ZE41 |C2026 03 13.05539012 07 24.300-35 27 31.50   ~3D2Z 20.2 GVNEOCP807
     C45ZE41 |C2026 03 13.06165012 07 28.310-35 27 46.50   ~3D2Z 20.7 GVNEOCP807
     C45ZE41 |C2026 03 13.07418012 07 36.340-35 28 16.90   ~3D2Z 20.6 GVNEOCP807
     C45ZE41 |C2026 03 13.08044212 07 40.270-35 28 31.70   ~3D2Z 20.5 GVNEOCP807

Station data:
(204) Schiaparelli Observatory  (N45.868292 E8.769720)  Italy.  Observer L.
   Buzzi. 0.84-m f/3.5 reflector + CCD.
(703) Catalina Sky Survey  (N32.417029 W110.732640)  US/Arizona.  Observer E.
   J. Christensen. Measurers T. Beuden, V. F. Carvajal, D. Fay, J. B.
   Fazekas, D. C. Fuls, A. R. Gibbs, A. D. Grauer, H. Gröller, J. K. Hogan,
   R. A. Kowalski, S. M. Larson, G. J. Leonard, D. Rankin, R. L. Seaman, F.
   C. Shelly, K. W. Wierzchoś. 0.68 m Schmidt + 10K CCD.
(807) Cerro Tololo Observatory, La Serena  (S30.169133 W70.805900)  Chile.
   Observer R. Holmes. 0.61-m f/6.5 astrograph + CCD.
(F51) Pan-STARRS 1, Haleakala  (N20.707234 W156.255910)  US/Hawaii.
   Observers J. Herman, T. Lowe, P. Minguez, A. Schultz, I. Smith. Measurers
   K. Chambers, T. de Boer, J. Fairlamb, H. Gao, M. Huber, C.-C. Lin, E.
   Magnier, Y. Ramanjooloo, R. Wainscoat, R. Weryk. 1.8-m Ritchey-Chrétien +
   CCD.
(I52) Steward Observatory, Mt. Lemmon Station  (N32.442570 W110.788920)
   US/Arizona. Measurers T. Beuden, V. F. Carvajal, D. Fay, J. B. Fazekas, D.
   C. Fuls, A. R. Gibbs, A. D. Grauer, H. Gröller, J. K. Hogan, R. A.
   Kowalski, S. M. Larson, G. J. Leonard, D. Rankin, R. L. Seaman, F. C.
   Shelly, K. W. Wierzchoś. 1.0-m prime focus + CCD.

Orbital elements:  C45ZE41
   Perihelion 2026 Feb 14.670890 +/- 0.00113 TT = 16:06:04.9 (JD 2461086.170890)
Epoch 2026 Mar 13.0 TT = JDT 2461112.5   Earth MOID: 0.0007      AutoNEOCP
M   9.993435167 +/- 0.0044          (J2000 ecliptic)
n   0.379558413 +/- 0.000154        Peri.  156.678813 +/- 0.00025
a   1.889224783 +/- 0.000511        Node   343.841187 +/- 0.00015
e   0.48863407 +/- 0.000141         Incl.    5.809024 +/- 0.0012
P   2.597/948.453d         H 26.83  G  0.15   U  6.8
q 0.966085186 +/- 4.47e-6    Q 2.812364380 +/- 0.00103
From 24 observations 2026 Mar. 7-13; mean residual 0".44
Residuals in arcseconds: 
260307 F51  .55+  .47-    260308 I52  .28-  .16+    260309 807  .17+  .18-    
260308 703  1.5+  .56-    260308 I52  .38-  .15+    260311 807  .00   .20-    
260308 703  .25+  .50+    260308 I52  .37-  .07+    260311 807  .09-  .18-    
260308 703  1.3-  .52+    260308 I52  .61-  .01-    260311 807  .01+  .18-    
260308 703  .88-  .76+    260308 I52  .53-  .37+    260313 807  .06+  .03+    
260308 I52  .35-  .07+    260308 204  .89+  .35-    260313 807  .35-  .30+    
260308 I52  .23-  .15+    260309 807  .07+  .08-    260313 807  .13+  .00     
260308 I52  .31-  .03+    260309 807  .10+  .07+    260313 807  .03-  .00     

Ephemerides (geocentric):
Date (UTC) HH   RA             Dec           delta  r     elong  mag " sig PA
---- --------  ------------   ------------  ------ ------ -----  --- --------
2026 03 14 06  12 19 06.887   -35 52 49.03  .03620 1.0222 140.1 21.2 .053 103
2026 03 14 07  12 19 28.079   -35 53 25.89  .03639 1.0224 140.1 21.2 .053 103
2026 03 14 08  12 19 49.045   -35 54 01.97  .03659 1.0225 140.1 21.2 .053 103
2026 03 14 09  12 20 09.789   -35 54 37.30  .03678 1.0227 140.1 21.2 .053 103
2026 03 14 10  12 20 30.315   -35 55 11.87  .03698 1.0228 140.1 21.3 .053 103
2026 03 14 11  12 20 50.625   -35 55 45.72  .03717 1.0230 140.1 21.3 .053 103
2026 03 14 12  12 21 10.722   -35 56 18.85  .03737 1.0232 140.1 21.3 .053 102
2026 03 14 13  12 21 30.610   -35 56 51.28  .03756 1.0233 140.1 21.3 .053 102
2026 03 14 14  12 21 50.291   -35 57 23.01  .03776 1.0235 140.1 21.3 .053 102
2026 03 14 15  12 22 09.769   -35 57 54.07  .03796 1.0237 140.1 21.3 .053 102
2026 03 14 16  12 22 29.047   -35 58 24.46  .03815 1.0238 140.1 21.3 .052 102
2026 03 14 17  12 22 48.127   -35 58 54.21  .03835 1.0240 140.1 21.3 .052 102
2026 03 14 18  12 23 07.012   -35 59 23.31  .03854 1.0242 140.1 21.3 .052 102
2026 03 14 19  12 23 25.704   -35 59 51.78  .03874 1.0243 140.1 21.4 .052 102
2026 03 14 20  12 23 44.208   -36 00 19.64  .03894 1.0245 140.1 21.4 .052 102
2026 03 14 21  12 24 02.525   -36 00 46.89  .03913 1.0246 140.1 21.4 .052 102
2026 03 14 22  12 24 20.658   -36 01 13.55  .03933 1.0248 140.1 21.4 .052 102
2026 03 14 23  12 24 38.609   -36 01 39.62  .03952 1.0250 140.1 21.4 .052 102
2026 03 15 00  12 24 56.381   -36 02 05.12  .03972 1.0251 140.1 21.4 .052 102
2026 03 15 01  12 25 13.977   -36 02 30.05  .03992 1.0253 140.1 21.4 .052 102
2026 03 15 02  12 25 31.399   -36 02 54.43  .04011 1.0255 140.1 21.4 .052 102
2026 03 15 03  12 25 48.649   -36 03 18.27  .04031 1.0256 140.1 21.4 .052 102
2026 03 15 04  12 26 05.729   -36 03 41.57  .04051 1.0258 140.1 21.5 .052 102
2026 03 15 05  12 26 22.643   -36 04 04.35  .04070 1.0260 140.1 21.5 .052 102
2026 03 15 06  12 26 39.392   -36 04 26.61  .04090 1.0261 140.1 21.5 .052 102
2026 03 15 07  12 26 55.978   -36 04 48.36  .04110 1.0263 140.1 21.5 .052 102
2026 03 15 08  12 27 12.404   -36 05 09.62  .04129 1.0265 140.1 21.5 .052 102
2026 03 15 09  12 27 28.671   -36 05 30.38  .04149 1.0266 140.1 21.5 .052 102
2026 03 15 10  12 27 44.783   -36 05 50.67  .04169 1.0268 140.1 21.5 .051 102
2026 03 15 11  12 28 00.740   -36 06 10.47  .04188 1.0270 140.1 21.5 .051 102
2026 03 15 12  12 28 16.545   -36 06 29.82  .04208 1.0271 140.1 21.5 .051 102
2026 03 15 13  12 28 32.200   -36 06 48.70  .04228 1.0273 140.1 21.6 .051 102
2026 03 15 14  12 28 47.708   -36 07 07.14  .04247 1.0275 140.1 21.6 .051 102
2026 03 15 15  12 29 03.069   -36 07 25.13  .04267 1.0276 140.1 21.6 .051 102
2026 03 15 16  12 29 18.285   -36 07 42.68  .04287 1.0278 140.1 21.6 .051 102
2026 03 15 17  12 29 33.360   -36 07 59.80  .04307 1.0280 140.1 21.6 .051 103
2026 03 15 18  12 29 48.294   -36 08 16.51  .04326 1.0281 140.1 21.6 .051 103
2026 03 15 19  12 30 03.089   -36 08 32.79  .04346 1.0283 140.1 21.6 .051 103
2026 03 15 20  12 30 17.747   -36 08 48.67  .04366 1.0285 140.1 21.6 .051 103
2026 03 15 21  12 30 32.270   -36 09 04.15  .04385 1.0287 140.1 21.6 .051 103
2026 03 15 22  12 30 46.659   -36 09 19.23  .04405 1.0288 140.2 21.6 .051 103
2026 03 15 23  12 31 00.917   -36 09 33.92  .04425 1.0290 140.2 21.7 .051 103
2026 03 16 00  12 31 15.044   -36 09 48.22  .04445 1.0292 140.2 21.7 .051 103
2026 03 16 01  12 31 29.043   -36 10 02.15  .04464 1.0293 140.2 21.7 .051 103
2026 03 16 02  12 31 42.915   -36 10 15.70  .04484 1.0295 140.2 21.7 .051 103
2026 03 16 03  12 31 56.662   -36 10 28.89  .04504 1.0297 140.2 21.7 .051 103
2026 03 16 04  12 32 10.284   -36 10 41.72  .04524 1.0298 140.2 21.7 .051 103
2026 03 16 05  12 32 23.785   -36 10 54.19  .04544 1.0300 140.2 21.7 .051 103